Year,Month,Day,Hour,Minute,Value (Times are PST for temperature in C)
2009,10,11,00,00,2.30
2009,10,11,00,01,2.20
2009,10,11,00,02,2.20
2009,10,11,00,03,2.30
2009,10,11,00,04,2.30
2009,10,11,00,05,2.40
2009,10,11,00,06,2.50
2009,10,11,00,07,2.50
2009,10,11,00,08,2.60
2009,10,11,00,09,2.70
2009,10,11,00,10,2.70
2009,10,11,00,11,2.70
2009,10,11,00,12,2.80
2009,10,11,00,13,2.80
2009,10,11,00,14,2.80
2009,10,11,00,15,2.70
2009,10,11,00,16,2.70
2009,10,11,00,17,2.80
2009,10,11,00,18,2.80
2009,10,11,00,19,2.80
2009,10,11,00,20,2.90
2009,10,11,00,21,2.90
2009,10,11,00,22,2.90
2009,10,11,00,23,2.90
2009,10,11,00,24,2.90
2009,10,11,00,25,2.90
2009,10,11,00,26,2.80
2009,10,11,00,27,2.80
2009,10,11,00,28,2.80
2009,10,11,00,29,2.80
2009,10,11,00,30,2.80
2009,10,11,00,31,2.80
2009,10,11,00,32,2.80
2009,10,11,00,33,2.80
2009,10,11,00,34,2.70
2009,10,11,00,35,2.70
2009,10,11,00,36,2.70
2009,10,11,00,37,2.70
2009,10,11,00,38,2.80
2009,10,11,00,39,2.90
2009,10,11,00,40,2.90
2009,10,11,00,41,2.90
2009,10,11,00,42,2.80
2009,10,11,00,43,2.80
2009,10,11,00,44,2.80
2009,10,11,00,45,2.70
2009,10,11,00,46,2.60
2009,10,11,00,47,2.60
2009,10,11,00,48,2.60
2009,10,11,00,49,2.60
2009,10,11,00,50,2.50
2009,10,11,00,51,2.40
2009,10,11,00,52,2.30
2009,10,11,00,53,2.20
2009,10,11,00,54,2.20
2009,10,11,00,55,2.20
2009,10,11,00,56,2.20
2009,10,11,00,57,2.20
2009,10,11,00,58,2.20
2009,10,11,00,59,2.20
2009,10,11,01,00,2.20
2009,10,11,01,01,2.20
2009,10,11,01,02,2.20
2009,10,11,01,03,2.20
2009,10,11,01,04,2.10
2009,10,11,01,05,2.10
2009,10,11,01,06,2.10
2009,10,11,01,07,2.00
2009,10,11,01,08,1.90
2009,10,11,01,09,1.80
2009,10,11,01,10,1.70
2009,10,11,01,11,1.50
2009,10,11,01,12,1.40
2009,10,11,01,13,1.30
2009,10,11,01,14,1.30
2009,10,11,01,15,1.30
2009,10,11,01,16,1.30
2009,10,11,01,17,1.30
2009,10,11,01,18,1.20
2009,10,11,01,19,1.20
2009,10,11,01,20,1.20
2009,10,11,01,21,1.20
2009,10,11,01,22,1.30
2009,10,11,01,23,1.30
2009,10,11,01,24,1.50
2009,10,11,01,25,1.70
2009,10,11,01,26,1.80
2009,10,11,01,27,1.90
2009,10,11,01,28,1.90
2009,10,11,01,29,1.90
2009,10,11,01,30,1.80
2009,10,11,01,31,1.70
2009,10,11,01,32,1.50
2009,10,11,01,33,1.40
2009,10,11,01,34,1.30
2009,10,11,01,35,1.30
2009,10,11,01,36,1.30
2009,10,11,01,37,1.30
2009,10,11,01,38,1.40
2009,10,11,01,39,1.40
2009,10,11,01,40,1.40
2009,10,11,01,41,1.40
2009,10,11,01,42,1.40
2009,10,11,01,43,1.40
2009,10,11,01,44,1.40
2009,10,11,01,45,1.40
2009,10,11,01,46,1.50
2009,10,11,01,47,1.50
2009,10,11,01,48,1.60
2009,10,11,01,49,1.60
2009,10,11,01,50,1.80
2009,10,11,01,51,1.80
2009,10,11,01,52,1.90
2009,10,11,01,53,2.00
2009,10,11,01,54,2.00
2009,10,11,01,55,2.10
2009,10,11,01,56,2.10
2009,10,11,01,57,2.10
2009,10,11,01,58,2.10
2009,10,11,01,59,2.10
2009,10,11,02,00,2.10
2009,10,11,02,01,2.10
2009,10,11,02,02,2.20
2009,10,11,02,03,2.30
2009,10,11,02,04,2.30
2009,10,11,02,05,2.30
2009,10,11,02,06,2.30
2009,10,11,02,07,2.20
2009,10,11,02,08,2.20
2009,10,11,02,09,2.20
2009,10,11,02,10,2.00
2009,10,11,02,11,1.90
2009,10,11,02,12,1.70
2009,10,11,02,13,1.50
2009,10,11,02,14,1.30
2009,10,11,02,15,1.30
2009,10,11,02,16,1.10
2009,10,11,02,17,1.00
2009,10,11,02,18,0.90
2009,10,11,02,19,0.90
2009,10,11,02,20,0.90
2009,10,11,02,21,0.90
2009,10,11,02,22,0.80
2009,10,11,02,23,0.80
2009,10,11,02,24,0.80
2009,10,11,02,25,0.70
2009,10,11,02,26,0.70
2009,10,11,02,27,0.70
2009,10,11,02,28,0.60
2009,10,11,02,29,0.60
2009,10,11,02,30,0.60
2009,10,11,02,31,0.70
2009,10,11,02,32,0.80
2009,10,11,02,33,0.90
2009,10,11,02,34,1.20
2009,10,11,02,35,1.30
2009,10,11,02,36,1.30
2009,10,11,02,37,1.30
2009,10,11,02,38,1.20
2009,10,11,02,39,1.10
2009,10,11,02,40,1.00
2009,10,11,02,41,1.00
2009,10,11,02,42,1.00
2009,10,11,02,43,1.10
2009,10,11,02,44,1.20
2009,10,11,02,45,1.30
2009,10,11,02,46,1.30
2009,10,11,02,47,1.30
2009,10,11,02,48,1.30
2009,10,11,02,49,1.30
2009,10,11,02,50,1.30
2009,10,11,02,51,1.30
2009,10,11,02,52,1.10
2009,10,11,02,53,1.00
2009,10,11,02,54,1.00
2009,10,11,02,55,0.90
2009,10,11,02,56,0.90
2009,10,11,02,57,0.90
2009,10,11,02,58,0.90
2009,10,11,02,59,0.80
2009,10,11,03,00,0.80
2009,10,11,03,01,0.80
2009,10,11,03,02,0.70
2009,10,11,03,03,0.70
2009,10,11,03,04,0.60
2009,10,11,03,05,0.60
2009,10,11,03,06,0.60
2009,10,11,03,07,0.50
2009,10,11,03,08,0.50
2009,10,11,03,09,0.50
2009,10,11,03,10,0.50
2009,10,11,03,11,0.50
2009,10,11,03,12,0.50
2009,10,11,03,13,0.50
2009,10,11,03,14,0.50
2009,10,11,03,15,0.50
2009,10,11,03,16,0.50
2009,10,11,03,17,0.60
2009,10,11,03,18,0.60
2009,10,11,03,19,0.60
2009,10,11,03,20,0.60
2009,10,11,03,21,0.70
2009,10,11,03,22,0.70
2009,10,11,03,23,0.70
2009,10,11,03,24,0.70
2009,10,11,03,25,0.70
2009,10,11,03,26,0.70
2009,10,11,03,27,0.70
2009,10,11,03,28,0.70
2009,10,11,03,29,0.70
2009,10,11,03,30,0.70
2009,10,11,03,31,0.80
2009,10,11,03,32,0.80
2009,10,11,03,33,0.80
2009,10,11,03,34,0.80
2009,10,11,03,35,0.80
2009,10,11,03,36,0.80
2009,10,11,03,37,0.80
2009,10,11,03,38,0.80
2009,10,11,03,39,0.90
2009,10,11,03,40,0.90
2009,10,11,03,41,1.00
2009,10,11,03,42,1.00
2009,10,11,03,43,1.00
2009,10,11,03,44,1.10
2009,10,11,03,45,1.10
2009,10,11,03,46,1.20
2009,10,11,03,47,1.20
2009,10,11,03,48,1.30
2009,10,11,03,49,1.30
2009,10,11,03,50,1.30
2009,10,11,03,51,1.30
2009,10,11,03,52,1.30
2009,10,11,03,53,1.40
2009,10,11,03,54,1.50
2009,10,11,03,55,1.50
2009,10,11,03,56,1.50
2009,10,11,03,57,1.50
2009,10,11,03,58,1.40
2009,10,11,03,59,1.40
2009,10,11,04,00,1.40
2009,10,11,04,01,1.30
2009,10,11,04,02,1.30
2009,10,11,04,03,1.30
2009,10,11,04,04,1.30
2009,10,11,04,05,1.30
2009,10,11,04,06,1.30
2009,10,11,04,07,1.30
2009,10,11,04,08,1.30
2009,10,11,04,09,1.30
2009,10,11,04,10,1.30
2009,10,11,04,11,1.30
2009,10,11,04,12,1.30
2009,10,11,04,13,1.30
2009,10,11,04,14,1.30
2009,10,11,04,15,1.30
2009,10,11,04,16,1.30
2009,10,11,04,17,1.30
2009,10,11,04,18,1.30
2009,10,11,04,19,1.30
2009,10,11,04,20,1.30
2009,10,11,04,21,1.30
2009,10,11,04,22,1.30
2009,10,11,04,23,1.30
2009,10,11,04,24,1.30
2009,10,11,04,25,1.30
2009,10,11,04,26,1.20
2009,10,11,04,27,1.20
2009,10,11,04,28,1.20
2009,10,11,04,29,1.20
2009,10,11,04,30,1.20
2009,10,11,04,31,1.20
2009,10,11,04,32,1.20
2009,10,11,04,33,1.10
2009,10,11,04,34,1.10
2009,10,11,04,35,1.10
2009,10,11,04,36,1.10
2009,10,11,04,37,1.10
2009,10,11,04,38,1.10
2009,10,11,04,39,1.20
2009,10,11,04,40,1.30
2009,10,11,04,41,1.30
2009,10,11,04,42,1.50
2009,10,11,04,43,1.60
2009,10,11,04,44,1.70
2009,10,11,04,45,1.80
2009,10,11,04,46,1.80
2009,10,11,04,47,1.70
2009,10,11,04,48,1.60
2009,10,11,04,49,1.50
2009,10,11,04,50,1.40
2009,10,11,04,51,1.30
2009,10,11,04,52,1.30
2009,10,11,04,53,1.30
2009,10,11,04,54,1.30
2009,10,11,04,55,1.30
2009,10,11,04,56,1.30
2009,10,11,04,57,1.30
2009,10,11,04,58,1.30
2009,10,11,04,59,1.30
2009,10,11,05,00,1.30
2009,10,11,05,01,1.30
2009,10,11,05,02,1.30
2009,10,11,05,03,1.30
2009,10,11,05,04,1.30
2009,10,11,05,05,1.40
2009,10,11,05,06,1.50
2009,10,11,05,07,1.50
2009,10,11,05,08,1.60
2009,10,11,05,09,1.60
2009,10,11,05,10,1.70
2009,10,11,05,11,1.70
2009,10,11,05,12,1.70
2009,10,11,05,13,1.70
2009,10,11,05,14,1.60
2009,10,11,05,15,1.60
2009,10,11,05,16,1.70
2009,10,11,05,17,1.80
2009,10,11,05,18,1.80
2009,10,11,05,19,1.80
2009,10,11,05,20,1.80
2009,10,11,05,21,1.80
2009,10,11,05,22,1.80
2009,10,11,05,23,1.80
2009,10,11,05,24,1.80
2009,10,11,05,25,1.70
2009,10,11,05,26,1.70
2009,10,11,05,27,1.60
2009,10,11,05,28,1.60
2009,10,11,05,29,1.60
2009,10,11,05,30,1.50
2009,10,11,05,31,1.40
2009,10,11,05,32,1.40
2009,10,11,05,33,1.50
2009,10,11,05,34,1.50
2009,10,11,05,35,1.60
2009,10,11,05,36,1.60
2009,10,11,05,37,1.60
2009,10,11,05,38,1.70
2009,10,11,05,39,1.70
2009,10,11,05,40,1.70
2009,10,11,05,41,1.70
2009,10,11,05,42,1.70
2009,10,11,05,43,1.80
2009,10,11,05,44,1.90
2009,10,11,05,45,2.00
2009,10,11,05,46,2.10
2009,10,11,05,47,2.10
2009,10,11,05,48,2.20
2009,10,11,05,49,2.20
2009,10,11,05,50,2.20
2009,10,11,05,51,2.10
2009,10,11,05,52,2.10
2009,10,11,05,53,2.00
2009,10,11,05,54,1.90
2009,10,11,05,55,1.90
2009,10,11,05,56,1.90
2009,10,11,05,57,1.90
2009,10,11,05,58,1.80
2009,10,11,05,59,1.80
2009,10,11,06,00,1.80
2009,10,11,06,01,1.80
2009,10,11,06,02,1.80
2009,10,11,06,03,1.70
2009,10,11,06,04,1.70
2009,10,11,06,05,1.70
2009,10,11,06,06,1.60
2009,10,11,06,07,1.60
2009,10,11,06,08,1.60
2009,10,11,06,09,1.50
2009,10,11,06,10,1.50
2009,10,11,06,11,1.50
2009,10,11,06,12,1.50
2009,10,11,06,13,1.50
2009,10,11,06,14,1.50
2009,10,11,06,15,1.50
2009,10,11,06,16,1.50
2009,10,11,06,17,1.50
2009,10,11,06,18,1.50
2009,10,11,06,19,1.40
2009,10,11,06,20,1.40
2009,10,11,06,21,1.30
2009,10,11,06,22,1.30
2009,10,11,06,23,1.30
2009,10,11,06,24,1.40
2009,10,11,06,25,1.50
2009,10,11,06,26,1.50
2009,10,11,06,27,1.60
2009,10,11,06,28,1.70
2009,10,11,06,29,1.80
2009,10,11,06,30,1.90
2009,10,11,06,31,1.90
2009,10,11,06,32,2.00
2009,10,11,06,33,2.10
2009,10,11,06,34,2.10
2009,10,11,06,35,2.10
2009,10,11,06,36,2.10
2009,10,11,06,37,2.10
2009,10,11,06,38,2.00
2009,10,11,06,39,2.00
2009,10,11,06,40,2.00
2009,10,11,06,41,1.90
2009,10,11,06,42,1.90
2009,10,11,06,43,1.90
2009,10,11,06,44,1.80
2009,10,11,06,45,1.70
2009,10,11,06,46,1.70
2009,10,11,06,47,1.60
2009,10,11,06,48,1.60
2009,10,11,06,49,1.50
2009,10,11,06,50,1.50
2009,10,11,06,51,1.50
2009,10,11,06,52,1.50
2009,10,11,06,53,1.50
2009,10,11,06,54,1.50
2009,10,11,06,55,1.50
2009,10,11,06,56,1.60
2009,10,11,06,57,1.50
2009,10,11,06,58,1.50
2009,10,11,06,59,1.40
2009,10,11,07,00,1.40
2009,10,11,07,01,1.40
2009,10,11,07,02,1.30
2009,10,11,07,03,1.30
2009,10,11,07,04,1.30
2009,10,11,07,05,1.30
2009,10,11,07,06,1.30
2009,10,11,07,07,1.30
2009,10,11,07,08,1.30
2009,10,11,07,09,1.30
2009,10,11,07,10,1.30
2009,10,11,07,11,1.30
2009,10,11,07,12,1.30
2009,10,11,07,13,1.30
2009,10,11,07,14,1.30
2009,10,11,07,15,1.30
2009,10,11,07,16,1.30
2009,10,11,07,17,1.30
2009,10,11,07,18,1.20
2009,10,11,07,19,1.20
2009,10,11,07,20,1.20
2009,10,11,07,21,1.20
2009,10,11,07,22,1.20
2009,10,11,07,23,1.20
2009,10,11,07,24,1.20
2009,10,11,07,25,1.20
2009,10,11,07,26,1.30
2009,10,11,07,27,1.30
2009,10,11,07,28,1.30
2009,10,11,07,29,1.30
2009,10,11,07,30,1.30
2009,10,11,07,31,1.20
2009,10,11,07,32,1.20
2009,10,11,07,33,1.20
2009,10,11,07,34,1.10
2009,10,11,07,35,1.10
2009,10,11,07,36,1.00
2009,10,11,07,37,1.00
2009,10,11,07,38,0.90
2009,10,11,07,39,0.90
2009,10,11,07,40,0.90
2009,10,11,07,41,0.90
2009,10,11,07,42,0.90
2009,10,11,07,43,0.90
2009,10,11,07,44,0.90
2009,10,11,07,45,1.00
2009,10,11,07,46,1.00
2009,10,11,07,47,1.00
2009,10,11,07,48,1.10
2009,10,11,07,49,1.10
2009,10,11,07,50,1.10
2009,10,11,07,51,1.10
2009,10,11,07,52,1.10
2009,10,11,07,53,1.10
2009,10,11,07,54,1.00
2009,10,11,07,55,1.00
2009,10,11,07,56,1.00
2009,10,11,07,57,1.10
2009,10,11,07,58,1.30
2009,10,11,07,59,1.50
2009,10,11,08,00,1.50
2009,10,11,08,01,1.60
2009,10,11,08,02,1.70
2009,10,11,08,03,1.80
2009,10,11,08,04,1.80
2009,10,11,08,05,1.80
2009,10,11,08,06,1.80
2009,10,11,08,07,1.80
2009,10,11,08,08,1.70
2009,10,11,08,09,1.70
2009,10,11,08,10,1.70
2009,10,11,08,11,1.70
2009,10,11,08,12,1.70
2009,10,11,08,13,1.80
2009,10,11,08,14,1.80
2009,10,11,08,15,1.80
2009,10,11,08,16,1.80
2009,10,11,08,17,1.80
2009,10,11,08,18,1.80
2009,10,11,08,19,1.80
2009,10,11,08,20,1.90
2009,10,11,08,21,2.00
2009,10,11,08,22,2.00
2009,10,11,08,23,2.00
2009,10,11,08,24,2.10
2009,10,11,08,25,2.10
2009,10,11,08,26,2.10
2009,10,11,08,27,2.10
2009,10,11,08,28,2.20
2009,10,11,08,29,2.30
2009,10,11,08,30,2.50
2009,10,11,08,31,2.60
2009,10,11,08,32,2.70
2009,10,11,08,33,2.80
2009,10,11,08,34,2.80
2009,10,11,08,35,2.90
2009,10,11,08,36,2.80
2009,10,11,08,37,2.90
2009,10,11,08,38,3.00
2009,10,11,08,39,3.10
2009,10,11,08,40,3.20
2009,10,11,08,41,3.30
2009,10,11,08,42,3.40
2009,10,11,08,43,3.50
2009,10,11,08,44,3.50
2009,10,11,08,45,3.50
2009,10,11,08,46,3.60
2009,10,11,08,47,3.60
2009,10,11,08,48,3.60
2009,10,11,08,49,3.70
2009,10,11,08,50,3.70
2009,10,11,08,51,3.70
2009,10,11,08,52,3.80
2009,10,11,08,53,3.80
2009,10,11,08,54,3.90
2009,10,11,08,55,3.90
2009,10,11,08,56,3.90
2009,10,11,08,57,4.00
2009,10,11,08,58,4.20
2009,10,11,08,59,4.30
2009,10,11,09,00,4.40
2009,10,11,09,01,4.50
2009,10,11,09,02,4.70
2009,10,11,09,03,4.90
2009,10,11,09,04,5.10
2009,10,11,09,05,5.30
2009,10,11,09,06,5.40
2009,10,11,09,07,5.50
2009,10,11,09,08,5.50
2009,10,11,09,09,5.50
2009,10,11,09,10,5.60
2009,10,11,09,11,5.60
2009,10,11,09,12,5.70
2009,10,11,09,13,5.80
2009,10,11,09,14,5.90
2009,10,11,09,15,6.00
2009,10,11,09,16,6.10
2009,10,11,09,17,6.20
2009,10,11,09,18,6.30
2009,10,11,09,19,6.40
2009,10,11,09,20,6.60
2009,10,11,09,21,6.70
2009,10,11,09,22,6.90
2009,10,11,09,23,7.00
2009,10,11,09,24,7.20
2009,10,11,09,25,7.30
2009,10,11,09,26,7.40
2009,10,11,09,27,7.60
2009,10,11,09,28,7.80
2009,10,11,09,29,7.90
2009,10,11,09,30,8.10
2009,10,11,09,31,8.30
2009,10,11,09,32,8.40
2009,10,11,09,33,8.50
2009,10,11,09,34,8.60
2009,10,11,09,35,8.60
2009,10,11,09,36,8.70
2009,10,11,09,37,8.70
2009,10,11,09,38,8.70
2009,10,11,09,39,8.70
2009,10,11,09,40,8.80
2009,10,11,09,41,8.80
2009,10,11,09,42,8.70
2009,10,11,09,43,8.80
2009,10,11,09,44,8.80
2009,10,11,09,45,8.80
2009,10,11,09,46,8.80
2009,10,11,09,47,8.80
2009,10,11,09,48,8.80
2009,10,11,09,49,8.80
2009,10,11,09,50,8.80
2009,10,11,09,51,8.80
2009,10,11,09,52,8.80
2009,10,11,09,53,8.80
2009,10,11,09,54,8.90
2009,10,11,09,55,8.90
2009,10,11,09,56,8.90
2009,10,11,09,57,8.90
2009,10,11,09,58,9.00
2009,10,11,09,59,9.00
2009,10,11,10,00,9.10
2009,10,11,10,01,9.10
2009,10,11,10,02,9.10
2009,10,11,10,03,9.10
2009,10,11,10,04,9.20
2009,10,11,10,05,9.20
2009,10,11,10,06,9.20
2009,10,11,10,07,9.30
2009,10,11,10,08,9.30
2009,10,11,10,09,9.40
2009,10,11,10,10,9.50
2009,10,11,10,11,9.60
2009,10,11,10,12,9.70
2009,10,11,10,13,9.80
2009,10,11,10,14,9.80
2009,10,11,10,15,9.80
2009,10,11,10,16,9.80
2009,10,11,10,17,9.70
2009,10,11,10,18,9.70
2009,10,11,10,19,9.60
2009,10,11,10,20,9.70
2009,10,11,10,21,9.70
2009,10,11,10,22,9.60
2009,10,11,10,23,9.60
2009,10,11,10,24,9.60
2009,10,11,10,25,9.60
2009,10,11,10,26,9.50
2009,10,11,10,27,9.50
2009,10,11,10,28,9.50
2009,10,11,10,29,9.60
2009,10,11,10,30,9.60
2009,10,11,10,31,9.70
2009,10,11,10,32,9.70
2009,10,11,10,33,9.70
2009,10,11,10,34,9.80
2009,10,11,10,35,9.80
2009,10,11,10,36,9.70
2009,10,11,10,37,9.80
2009,10,11,10,38,9.80
2009,10,11,10,39,9.80
2009,10,11,10,40,9.90
2009,10,11,10,41,9.90
2009,10,11,10,42,9.90
2009,10,11,10,43,9.90
2009,10,11,10,44,9.80
2009,10,11,10,45,9.80
2009,10,11,10,46,9.80
2009,10,11,10,47,9.80
2009,10,11,10,48,9.80
2009,10,11,10,49,9.80
2009,10,11,10,50,9.80
2009,10,11,10,51,9.90
2009,10,11,10,52,10.00
2009,10,11,10,53,10.10
2009,10,11,10,54,10.10
2009,10,11,10,55,10.20
2009,10,11,10,56,10.30
2009,10,11,10,57,10.30
2009,10,11,10,58,10.40
2009,10,11,10,59,10.40
2009,10,11,11,00,10.50
2009,10,11,11,01,10.50
2009,10,11,11,02,10.60
2009,10,11,11,03,10.70
2009,10,11,11,04,10.80
2009,10,11,11,05,10.80
2009,10,11,11,06,10.80
2009,10,11,11,07,10.80
2009,10,11,11,08,10.80
2009,10,11,11,09,10.80
2009,10,11,11,10,10.70
2009,10,11,11,11,10.70
2009,10,11,11,12,10.70
2009,10,11,11,13,10.70
2009,10,11,11,14,10.80
2009,10,11,11,15,10.80
2009,10,11,11,16,10.80
2009,10,11,11,17,10.80
2009,10,11,11,18,10.90
2009,10,11,11,19,11.00
2009,10,11,11,20,11.10
2009,10,11,11,21,11.00
2009,10,11,11,22,11.00
2009,10,11,11,23,10.90
2009,10,11,11,24,10.80
2009,10,11,11,25,10.80
2009,10,11,11,26,10.80
2009,10,11,11,27,10.80
2009,10,11,11,28,10.80
2009,10,11,11,29,10.80
2009,10,11,11,30,10.80
2009,10,11,11,31,10.90
2009,10,11,11,32,10.90
2009,10,11,11,33,10.90
2009,10,11,11,34,10.90
2009,10,11,11,35,10.90
2009,10,11,11,36,10.90
2009,10,11,11,37,10.90
2009,10,11,11,38,10.90
2009,10,11,11,39,10.90
2009,10,11,11,40,10.90
2009,10,11,11,41,11.00
2009,10,11,11,42,10.90
2009,10,11,11,43,10.90
2009,10,11,11,44,10.80
2009,10,11,11,45,10.90
2009,10,11,11,46,10.90
2009,10,11,11,47,10.90
2009,10,11,11,48,10.90
2009,10,11,11,49,10.90
2009,10,11,11,50,10.90
2009,10,11,11,51,10.90
2009,10,11,11,52,10.90
2009,10,11,11,53,10.80
2009,10,11,11,54,10.80
2009,10,11,11,55,10.80
2009,10,11,11,56,10.80
2009,10,11,11,57,10.80
2009,10,11,11,58,10.80
2009,10,11,11,59,10.80
2009,10,11,12,00,10.70
2009,10,11,12,01,10.70
2009,10,11,12,02,10.80
2009,10,11,12,03,10.80
2009,10,11,12,04,10.80
2009,10,11,12,05,10.80
2009,10,11,12,06,10.80
2009,10,11,12,07,10.80
2009,10,11,12,08,10.80
2009,10,11,12,09,10.80
2009,10,11,12,10,10.80
2009,10,11,12,11,10.80
2009,10,11,12,12,10.80
2009,10,11,12,13,10.80
2009,10,11,12,14,10.90
2009,10,11,12,15,10.90
2009,10,11,12,16,11.00
2009,10,11,12,17,11.00
2009,10,11,12,18,11.10
2009,10,11,12,19,11.00
2009,10,11,12,20,10.90
2009,10,11,12,21,10.80
2009,10,11,12,22,10.80
2009,10,11,12,23,10.80
2009,10,11,12,24,10.80
2009,10,11,12,25,10.70
2009,10,11,12,26,10.70
2009,10,11,12,27,10.70
2009,10,11,12,28,10.80
2009,10,11,12,29,10.80
2009,10,11,12,30,10.90
2009,10,11,12,31,11.00
2009,10,11,12,32,11.00
2009,10,11,12,33,11.00
2009,10,11,12,34,10.90
2009,10,11,12,35,10.90
2009,10,11,12,36,10.90
2009,10,11,12,37,10.90
2009,10,11,12,38,10.90
2009,10,11,12,39,10.90
2009,10,11,12,40,11.00
2009,10,11,12,41,11.00
2009,10,11,12,42,11.10
2009,10,11,12,43,11.10
2009,10,11,12,44,11.00
2009,10,11,12,45,11.00
2009,10,11,12,46,10.90
2009,10,11,12,47,10.90
2009,10,11,12,48,11.00
2009,10,11,12,49,11.00
2009,10,11,12,50,11.10
2009,10,11,12,51,11.20
2009,10,11,12,52,11.20
2009,10,11,12,53,11.20
2009,10,11,12,54,11.20
2009,10,11,12,55,11.20
2009,10,11,12,56,11.10
2009,10,11,12,57,11.10
2009,10,11,12,58,11.10
2009,10,11,12,59,11.00
2009,10,11,13,00,11.00
2009,10,11,13,01,11.00
2009,10,11,13,02,11.00
2009,10,11,13,03,11.00
2009,10,11,13,04,11.10
2009,10,11,13,05,11.10
2009,10,11,13,06,11.10
2009,10,11,13,07,11.10
2009,10,11,13,08,11.10
2009,10,11,13,09,11.00
2009,10,11,13,10,11.00
2009,10,11,13,11,11.00
2009,10,11,13,12,11.00
2009,10,11,13,13,11.00
2009,10,11,13,14,11.00
2009,10,11,13,15,11.00
2009,10,11,13,16,11.00
2009,10,11,13,17,11.00
2009,10,11,13,18,11.10
2009,10,11,13,19,11.00
2009,10,11,13,20,11.10
2009,10,11,13,21,11.10
2009,10,11,13,22,11.10
2009,10,11,13,23,11.10
2009,10,11,13,24,11.10
2009,10,11,13,25,11.10
2009,10,11,13,26,11.10
2009,10,11,13,27,11.10
2009,10,11,13,28,11.10
2009,10,11,13,29,11.10
2009,10,11,13,30,11.10
2009,10,11,13,31,11.20
2009,10,11,13,32,11.40
2009,10,11,13,33,11.40
2009,10,11,13,34,11.50
2009,10,11,13,35,11.60
2009,10,11,13,36,11.60
2009,10,11,13,37,11.50
2009,10,11,13,38,11.40
2009,10,11,13,39,11.40
2009,10,11,13,40,11.40
2009,10,11,13,41,11.30
2009,10,11,13,42,11.30
2009,10,11,13,43,11.30
2009,10,11,13,44,11.20
2009,10,11,13,45,11.20
2009,10,11,13,46,11.10
2009,10,11,13,47,11.10
2009,10,11,13,48,11.10
2009,10,11,13,49,11.10
2009,10,11,13,50,11.10
2009,10,11,13,51,11.10
2009,10,11,13,52,11.10
2009,10,11,13,53,11.10
2009,10,11,13,54,11.10
2009,10,11,13,55,11.10
2009,10,11,13,56,11.10
2009,10,11,13,57,11.10
2009,10,11,13,58,11.00
2009,10,11,13,59,11.00
2009,10,11,14,00,11.00
2009,10,11,14,01,11.00
2009,10,11,14,02,11.10
2009,10,11,14,03,11.00
2009,10,11,14,04,11.00
2009,10,11,14,05,10.90
2009,10,11,14,06,10.90
2009,10,11,14,07,10.90
2009,10,11,14,08,10.90
2009,10,11,14,09,10.90
2009,10,11,14,10,10.90
2009,10,11,14,11,10.90
2009,10,11,14,12,10.90
2009,10,11,14,13,10.90
2009,10,11,14,14,10.90
2009,10,11,14,15,10.90
2009,10,11,14,16,10.90
2009,10,11,14,17,11.00
2009,10,11,14,18,11.00
2009,10,11,14,19,10.90
2009,10,11,14,20,10.90
2009,10,11,14,21,10.90
2009,10,11,14,22,10.80
2009,10,11,14,23,10.80
2009,10,11,14,24,10.80
2009,10,11,14,25,10.70
2009,10,11,14,26,10.70
2009,10,11,14,27,10.70
2009,10,11,14,28,10.70
2009,10,11,14,29,10.70
2009,10,11,14,30,10.70
2009,10,11,14,31,10.70
2009,10,11,14,32,10.70
2009,10,11,14,33,10.70
2009,10,11,14,34,10.70
2009,10,11,14,35,10.70
2009,10,11,14,36,10.70
2009,10,11,14,37,10.70
2009,10,11,14,38,10.70
2009,10,11,14,39,10.70
2009,10,11,14,40,10.70
2009,10,11,14,41,10.70
2009,10,11,14,42,10.70
2009,10,11,14,43,10.70
2009,10,11,14,44,10.70
2009,10,11,14,45,10.70
2009,10,11,14,46,10.70
2009,10,11,14,47,10.80
2009,10,11,14,48,10.80
2009,10,11,14,49,10.80
2009,10,11,14,50,10.70
2009,10,11,14,51,10.70
2009,10,11,14,52,10.70
2009,10,11,14,53,10.70
2009,10,11,14,54,10.70
2009,10,11,14,55,10.70
2009,10,11,14,56,10.70
2009,10,11,14,57,10.70
2009,10,11,14,58,10.80
2009,10,11,14,59,10.80
2009,10,11,15,00,10.70
2009,10,11,15,01,10.70
2009,10,11,15,02,10.70
2009,10,11,15,03,10.70
2009,10,11,15,04,10.60
2009,10,11,15,05,10.60
2009,10,11,15,06,10.60
2009,10,11,15,07,10.60
2009,10,11,15,08,10.50
2009,10,11,15,09,10.50
2009,10,11,15,10,10.50
2009,10,11,15,11,10.50
2009,10,11,15,12,10.50
2009,10,11,15,13,10.50
2009,10,11,15,14,10.50
2009,10,11,15,15,10.60
2009,10,11,15,16,10.60
2009,10,11,15,17,10.60
2009,10,11,15,18,10.60
2009,10,11,15,19,10.60
2009,10,11,15,20,10.60
2009,10,11,15,21,10.60
2009,10,11,15,22,10.60
2009,10,11,15,23,10.60
2009,10,11,15,24,10.60
2009,10,11,15,25,10.60
2009,10,11,15,26,10.60
2009,10,11,15,27,10.60
2009,10,11,15,28,10.60
2009,10,11,15,29,10.60
2009,10,11,15,30,10.60
2009,10,11,15,31,10.60
2009,10,11,15,32,10.60
2009,10,11,15,33,10.60
2009,10,11,15,34,10.60
2009,10,11,15,35,10.60
2009,10,11,15,36,10.70
2009,10,11,15,37,10.70
2009,10,11,15,38,10.70
2009,10,11,15,39,10.70
2009,10,11,15,40,10.70
2009,10,11,15,41,10.70
2009,10,11,15,42,10.70
2009,10,11,15,43,10.80
2009,10,11,15,44,10.80
2009,10,11,15,45,10.80
2009,10,11,15,46,10.80
2009,10,11,15,47,10.80
2009,10,11,15,48,10.80
2009,10,11,15,49,10.90
2009,10,11,15,50,10.90
2009,10,11,15,51,10.90
2009,10,11,15,52,10.90
2009,10,11,15,53,10.90
2009,10,11,15,54,10.90
2009,10,11,15,55,10.80
2009,10,11,15,56,10.80
2009,10,11,15,57,10.80
2009,10,11,15,58,10.80
2009,10,11,15,59,10.80
2009,10,11,16,00,10.80
2009,10,11,16,01,10.80
2009,10,11,16,02,10.80
2009,10,11,16,03,10.70
2009,10,11,16,04,10.70
2009,10,11,16,05,10.70
2009,10,11,16,06,10.70
2009,10,11,16,07,10.70
2009,10,11,16,08,10.70
2009,10,11,16,09,10.70
2009,10,11,16,10,10.70
2009,10,11,16,11,10.70
2009,10,11,16,12,10.70
2009,10,11,16,13,10.70
2009,10,11,16,14,10.60
2009,10,11,16,15,10.60
2009,10,11,16,16,10.60
2009,10,11,16,17,10.60
2009,10,11,16,18,10.60
2009,10,11,16,19,10.60
2009,10,11,16,20,10.60
2009,10,11,16,21,10.60
2009,10,11,16,22,10.60
2009,10,11,16,23,10.60
2009,10,11,16,24,10.60
2009,10,11,16,25,10.60
2009,10,11,16,26,10.60
2009,10,11,16,27,10.60
2009,10,11,16,28,10.60
2009,10,11,16,29,10.60
2009,10,11,16,30,10.60
2009,10,11,16,31,10.60
2009,10,11,16,32,10.60
2009,10,11,16,33,10.60
2009,10,11,16,34,10.60
2009,10,11,16,35,10.60
2009,10,11,16,36,10.60
2009,10,11,16,37,10.60
2009,10,11,16,38,10.60
2009,10,11,16,39,10.60
2009,10,11,16,40,10.60
2009,10,11,16,41,10.60
2009,10,11,16,42,10.60
2009,10,11,16,43,10.60
2009,10,11,16,44,10.60
2009,10,11,16,45,10.60
2009,10,11,16,46,10.60
2009,10,11,16,47,10.60
2009,10,11,16,48,10.60
2009,10,11,16,49,10.60
2009,10,11,16,50,10.60
2009,10,11,16,51,10.60
2009,10,11,16,52,10.60
2009,10,11,16,53,10.60
2009,10,11,16,54,10.60
2009,10,11,16,55,10.60
2009,10,11,16,56,10.60
2009,10,11,16,57,10.60
2009,10,11,16,58,10.60
2009,10,11,16,59,10.60
2009,10,11,17,00,10.60
2009,10,11,17,01,10.60
2009,10,11,17,02,10.50
2009,10,11,17,03,10.50
2009,10,11,17,04,10.50
2009,10,11,17,05,10.50
2009,10,11,17,06,10.50
2009,10,11,17,07,10.40
2009,10,11,17,08,10.40
2009,10,11,17,09,10.40
2009,10,11,17,10,10.40
2009,10,11,17,11,10.40
2009,10,11,17,12,10.40
2009,10,11,17,13,10.40
2009,10,11,17,14,10.40
2009,10,11,17,15,10.40
2009,10,11,17,16,10.40
2009,10,11,17,17,10.40
2009,10,11,17,18,10.40
2009,10,11,17,19,10.40
2009,10,11,17,20,10.40
2009,10,11,17,21,10.40
2009,10,11,17,22,10.40
2009,10,11,17,23,10.40
2009,10,11,17,24,10.40
2009,10,11,17,25,10.40
2009,10,11,17,26,10.40
2009,10,11,17,27,10.40
2009,10,11,17,28,10.40
2009,10,11,17,29,10.40
2009,10,11,17,30,10.40
2009,10,11,17,31,10.40
2009,10,11,17,32,10.40
2009,10,11,17,33,10.40
2009,10,11,17,34,10.40
2009,10,11,17,35,10.40
2009,10,11,17,36,10.40
2009,10,11,17,37,10.40
2009,10,11,17,38,10.40
2009,10,11,17,39,10.40
2009,10,11,17,40,10.40
2009,10,11,17,41,10.40
2009,10,11,17,42,10.40
2009,10,11,17,43,10.40
2009,10,11,17,44,10.40
2009,10,11,17,45,10.40
2009,10,11,17,46,10.40
2009,10,11,17,47,10.30